Location: Corralito
(10.2667°N, 66.9500°W)
Time: 13:36:36
(UTC+00:00)

GPS 2-12 Rocket1 - Pass Details

Date: 10 December 2023
Orbit: 576 x 637 km, 20.0° (Epoch: 04 March)

Event Time Altitude Azimuth Distance (km) Brightness Sun altitude
Exits shadow 09:47:15 13° 264° (W) 1,668 4.7 -11.5°
Maximum altitude 09:50:40 36° 201° (SSW) 915 3.9 -10.8°
Drops below altitude 10° 09:54:40 10° 134° (SE) 1,868 6.8 -9.8°
Sets 09:57:07 0° 126° (SE) 2,769 8.3 -9.3°
